Home > Weather > George Town > Past weeks

Flag for Cayman Islands Past Weather in George Town, Cayman Islands — Yesterday and Last 2 Weeks

Now
84 °F

Passing clouds.


Feels Like: 96 °F
Forecast: 83 / 87 °F
Wind: 9 mph from East

Location: Owen Roberts Airportgrand Cayman

Current Time: Jun 30, 2016 at 9:48:50 PM

Latest Report: Jun 30, 2016 at 9:00 PM


Visibility: N/A

Pressure: 30.01 "Hg

Humidity: 84%

Dew Point: 79 °F

Location of George TownLocation

Past Weather in George Town — Graph

°F

George Town Temperature Yesterday

Maximum temperature yesterday: 90 °F (at 4:00 PM)
Minimum temperature yesterday: 81 °F (at 6:00 AM)
Average temperature yesterday: 85 °F

High & Low Weather Summary for the Past Weeks

 TemperatureHumidityPressure
High91 °F (Jun 19, 2:00 PM)94% (Jun 22, 9:00 PM)30.07 "Hg (Jun 22, 9:00 PM)
Low81 °F (Jun 23, 8:00 PM)63% (Jun 19, 2:00 PM)29.92 "Hg (Jun 17, 6:00 PM)
Average86 °F77%29.99 "Hg
* Reported Jun 15 8:00 PM — Jun 30 8:00 PM, George Town, Weather by CustomWeather, © 2016

Note: Actual official high and low records may vary slightly from our data, if they occured in-between our weather recording intervals... More about our weather records

Advertising

George Town Weather History for the Previous 24 Hours

Scroll right to see more
 ConditionsComfort  
Time TempWeatherWind HumidityBarometerVisibility
8:00 PM
Thu, Jun 30
86 °FPassing clouds.8 mph75%30.01 "HgN/A
7:00 PM86 °FPassing clouds.9 mph75%29.98 "HgN/A
6:00 PM86 °FPassing clouds.12 mph75%29.95 "HgN/A
5:00 PM88 °FPassing clouds.12 mph70%29.95 "HgN/A
4:00 PM88 °FPassing clouds.14 mph79%29.95 "HgN/A
3:00 PM90 °FPassing clouds.14 mph67%29.95 "HgN/A
2:00 PM88 °FPassing clouds.14 mph70%29.98 "HgN/A
1:00 PM88 °FScattered clouds.13 mph70%29.98 "HgN/A
12:00 PM90 °FScattered clouds.12 mph67%29.98 "HgN/A
11:00 AM90 °FScattered clouds.15 mph75%29.98 "HgN/A
10:00 AM90 °FScattered clouds.15 mph84%29.98 "HgN/A
9:00 AM86 °FPartly sunny.10 mph79%30.01 "HgN/A
8:00 AM86 °FScattered clouds.6 mph79%29.98 "HgN/A
7:00 AM82 °FPassing clouds.6 mph84%29.98 "HgN/A
6:00 AM82 °FPassing clouds.5 mph84%29.98 "HgN/A
10:00 PM
Wed, Jun 29
84 °FPassing clouds.8 mph84%29.98 "HgN/A
9:00 PM84 °FPassing clouds.8 mph84%29.98 "HgN/A
Weather by CustomWeather, © 2016

See weather overviewHow to use our weather pages